Mandan, ND

5:45 AM CST on January 20, 2018 (GMT -0600)
Mandan

Weather History for KY19 - March, 2014

Change the Weather History Date:

Sunday, March 30, 2014

  Actual Average (KBIS) Record (KBIS)
Temperature  
Mean Temperature 38 °F -  
Max Temperature 50 °F 48 °F 75 °F (1966)
Min Temperature 26 °F 23 °F -9 °F (1969)
Degree Days  
Heating Degree Days 27    
Moisture  
Dew Point 31 °F    
Average Humidity 69    
Maximum Humidity 93    
Minimum Humidity 50    
Precipitation  
Precipitation 0.26 in - - ()
Sea Level Pressure  
Sea Level Pressure 29.79 in    
Wind  
Wind Speed 12 mph (NNE)    
Max Wind Speed 29 mph    
Max Gust Speed 39 mph    
Visibility 10 miles    
Events      
Averages and records for this station are not official NWS values.
T = Trace of Precipitation, MM = Missing Value Source: NWS Daily Summary

Daily Weather History Graph

Daily Weather History Graph

Search for Another Location

Airport or City:

Trip Planner

Search our weather history database for the weather conditions in past years. The results will help you decide how hot, cold, wet, or windy it might be!

Date:

Astronomy

Mar. 30, 2014 Rise Set
Actual Time 7:26 AM CDT 8:10 PM CDT
Civil Twilight 6:56 AM CDT 8:40 PM CDT
Nautical Twilight 6:19 AM CDT 9:17 PM CDT
Astronomical Twilight 5:41 AM CDT 9:55 PM CDT
Moon 7:13 AM CDT (3/30) 8:27 PM CDT (3/30)
Length of Visible Light 13h 44m
Length of Day
12h 43m
Waning Crescent, 0% of the Moon is Illuminated
Mar 30
Waning Crescent
Mar 30
New
Apr 7
First Quarter
Apr 15
Full
Apr 22
Last Quarter

Hourly Weather History & Observations

Time (CDT) Temp. Windchill Dew Point Humidity Pressure Visibility Wind Dir Wind Speed Gust Speed Precip Events Conditions
12:15 AM 46.4 °F 42.9 °F 28.4 °F 50% 29.73 in 10.0 mi West 6.9 mph - N/A   Overcast
12:35 AM 46.4 °F 41.1 °F 32.0 °F 57% 29.74 in 10.0 mi WNW 11.5 mph - N/A   Mostly Cloudy
12:55 AM 46.4 °F 42.4 °F 32.0 °F 57% 29.75 in 10.0 mi NW 8.1 mph - N/A   Overcast
1:15 AM 46.4 °F 41.9 °F 32.0 °F 57% 29.75 in 10.0 mi NW 9.2 mph - N/A   Overcast
1:35 AM 44.6 °F 39.2 °F 32.0 °F 61% 29.75 in 10.0 mi West 10.4 mph - N/A   Overcast
1:55 AM 44.6 °F 40.7 °F 32.0 °F 61% 29.74 in 10.0 mi West 6.9 mph - N/A   Mostly Cloudy
2:15 AM 42.8 °F 39.3 °F 32.0 °F 66% 29.73 in 10.0 mi West 5.8 mph - N/A   Overcast
2:35 AM 44.6 °F 41.4 °F 32.0 °F 61% 29.72 in 10.0 mi WSW 5.8 mph - N/A   Overcast
2:55 AM 42.8 °F 37.5 °F 32.0 °F 66% 29.73 in 10.0 mi West 9.2 mph - N/A   Overcast
3:15 AM 41.0 °F 34.3 °F 32.0 °F 70% 29.73 in 10.0 mi West 11.5 mph - N/A   Mostly Cloudy
3:35 AM 39.2 °F 33.0 °F 32.0 °F 75% 29.74 in 10.0 mi West 9.2 mph - N/A   Mostly Cloudy
3:55 AM 39.2 °F 33.6 °F 32.0 °F 75% 29.73 in 10.0 mi West 8.1 mph - N/A   Mostly Cloudy
4:15 AM 39.2 °F 32.5 °F 32.0 °F 75% 29.73 in 10.0 mi West 10.4 mph - N/A   Partly Cloudy
4:35 AM 37.4 °F 30.8 °F 32.0 °F 81% 29.75 in 10.0 mi West 9.2 mph - N/A   Mostly Cloudy
4:55 AM 35.6 °F 28.0 °F 30.2 °F 81% 29.75 in 10.0 mi West 10.4 mph - N/A   Mostly Cloudy
5:15 AM 35.6 °F 28.0 °F 30.2 °F 81% 29.75 in 10.0 mi West 10.4 mph - N/A   Partly Cloudy
5:35 AM 37.4 °F 29.8 °F 32.0 °F 81% 29.76 in 10.0 mi WNW 11.5 mph - N/A   Partly Cloudy
5:55 AM 37.4 °F 30.8 °F 32.0 °F 81% 29.76 in 10.0 mi WNW 9.2 mph - N/A   Mostly Cloudy
6:15 AM 39.2 °F 33.0 °F 32.0 °F 75% 29.77 in 10.0 mi NW 9.2 mph - N/A   Mostly Cloudy
6:35 AM 39.2 °F 33.0 °F 32.0 °F 75% 29.78 in 10.0 mi WNW 9.2 mph - N/A   Overcast
6:55 AM 39.2 °F 33.0 °F 32.0 °F 75% 29.78 in 10.0 mi WNW 9.2 mph - N/A   Overcast
7:15 AM 37.4 °F 30.3 °F 32.0 °F 81% 29.79 in 10.0 mi WNW 10.4 mph - N/A   Mostly Cloudy
7:35 AM 39.2 °F 32.0 °F 32.0 °F 75% 29.78 in 10.0 mi NW 11.5 mph - N/A   Scattered Clouds
7:55 AM 37.4 °F 29.8 °F 32.0 °F 81% 29.79 in 10.0 mi NW 11.5 mph - N/A   Clear
8:15 AM 39.2 °F 32.5 °F 32.0 °F 75% 29.80 in 10.0 mi NNW 10.4 mph - N/A   Mostly Cloudy
8:35 AM 39.2 °F 33.0 °F 32.0 °F 75% 29.80 in 10.0 mi NNW 9.2 mph - N/A   Overcast
8:55 AM 39.2 °F 33.0 °F 32.0 °F 75% 29.81 in 10.0 mi North 9.2 mph - N/A   Overcast
9:15 AM 41.0 °F 33.5 °F 32.0 °F 70% 29.81 in 10.0 mi North 13.8 mph - N/A   Overcast
9:35 AM 41.0 °F 33.9 °F 32.0 °F 70% 29.81 in 10.0 mi North 12.7 mph - N/A   Overcast
9:55 AM 41.0 °F 34.3 °F 32.0 °F 70% 29.81 in 10.0 mi North 11.5 mph - N/A   Overcast
10:15 AM 41.0 °F 34.3 °F 32.0 °F 70% 29.82 in 10.0 mi NNE 11.5 mph - N/A   Mostly Cloudy
10:35 AM 42.8 °F 36.6 °F 32.0 °F 66% 29.81 in 10.0 mi NNE 11.5 mph - N/A   Scattered Clouds
10:55 AM 44.6 °F 38.8 °F 32.0 °F 61% 29.81 in 10.0 mi NE 11.5 mph - N/A   Partly Cloudy
11:15 AM 46.4 °F 43.5 °F 32.0 °F 57% 29.82 in 10.0 mi ENE 5.8 mph - N/A   Partly Cloudy
11:35 AM 46.4 °F 42.4 °F 32.0 °F 57% 29.82 in 10.0 mi East 8.1 mph - N/A   Clear
11:55 AM 46.4 °F 42.4 °F 32.0 °F 57% 29.84 in 10.0 mi NE 8.1 mph - N/A   Mostly Cloudy
12:15 PM 48.2 °F - 32.0 °F 54% 29.83 in 10.0 mi ENE 10.4 mph - N/A   Overcast
12:35 PM 48.2 °F - 32.0 °F 54% 29.83 in 10.0 mi East 9.2 mph - N/A   Mostly Cloudy
12:55 PM 48.2 °F - 32.0 °F 54% 29.83 in 10.0 mi ENE 9.2 mph - N/A   Mostly Cloudy
1:15 PM 48.2 °F - 32.0 °F 54% 29.82 in 10.0 mi ENE 9.2 mph - N/A   Mostly Cloudy
1:35 PM 48.2 °F - 32.0 °F 54% 29.81 in 10.0 mi NE 12.7 mph - N/A   Mostly Cloudy
1:55 PM 50.0 °F - 32.0 °F 50% 29.80 in 10.0 mi ENE 11.5 mph - N/A   Partly Cloudy
2:15 PM 50.0 °F - 33.8 °F 54% 29.79 in 10.0 mi ENE 11.5 mph 17.3 mph N/A   Clear
2:35 PM 50.0 °F - 33.8 °F 54% 29.79 in 10.0 mi ENE 12.7 mph - N/A   Clear
2:55 PM 50.0 °F - 33.8 °F 54% 29.79 in 10.0 mi ENE 15.0 mph - N/A   Clear
3:15 PM 50.0 °F - 32.0 °F 50% 29.79 in 10.0 mi ENE 11.5 mph - N/A   Mostly Cloudy
3:35 PM 50.0 °F - 32.0 °F 50% 29.79 in 10.0 mi ENE 12.7 mph - N/A   Mostly Cloudy
3:55 PM 50.0 °F - 32.0 °F 50% 29.80 in 10.0 mi ENE 12.7 mph - N/A   Partly Cloudy
4:15 PM 50.0 °F - 32.0 °F 50% 29.80 in 10.0 mi NE 12.7 mph - N/A   Clear
4:35 PM 50.0 °F - 33.8 °F 54% 29.80 in 10.0 mi NE 16.1 mph 20.7 mph N/A   Clear
4:55 PM 48.2 °F - 33.8 °F 58% 29.80 in 10.0 mi ENE 17.3 mph - N/A   Partly Cloudy
5:15 PM 48.2 °F - 33.8 °F 58% 29.79 in 10.0 mi ENE 20.7 mph 25.3 mph N/A   Clear
5:35 PM 48.2 °F - 33.8 °F 58% 29.78 in 10.0 mi ENE 21.9 mph - N/A   Clear
5:55 PM 46.4 °F 38.3 °F 32.0 °F 57% 29.77 in 10.0 mi ENE 23.0 mph - N/A   Clear
6:15 PM 44.6 °F 36.4 °F 32.0 °F 61% 29.77 in 10.0 mi ENE 20.7 mph 26.5 mph N/A   Scattered Clouds
6:35 PM 41.0 °F 32.5 °F 32.0 °F 70% 29.78 in 10.0 mi NE 17.3 mph 24.2 mph N/A   Mostly Cloudy
6:55 PM 39.2 °F 30.2 °F 32.0 °F 75% 29.79 in 10.0 mi NE 17.3 mph 21.9 mph N/A   Mostly Cloudy
7:15 PM 37.4 °F 26.6 °F 32.0 °F 81% 29.78 in 10.0 mi NE 21.9 mph 28.8 mph N/A   Mostly Cloudy
7:35 PM 35.6 °F 25.5 °F 32.0 °F 87% 29.80 in 10.0 mi NE 17.3 mph 23.0 mph N/A   Mostly Cloudy
7:55 PM 35.6 °F 26.6 °F 32.0 °F 87% 29.80 in 10.0 mi NE 13.8 mph 25.3 mph N/A   Overcast
8:15 PM 35.6 °F 24.2 °F 32.0 °F 87% 29.79 in 10.0 mi NE 21.9 mph 29.9 mph N/A   Overcast
8:35 PM 33.8 °F 21.6 °F 32.0 °F 93% 29.79 in 10.0 mi NE 23.0 mph 28.8 mph N/A   Overcast
8:55 PM 33.8 °F 21.9 °F 30.2 °F 87% 29.80 in 10.0 mi ENE 21.9 mph 27.6 mph N/A   Overcast
9:15 PM 32.0 °F 19.5 °F 30.2 °F 93% 29.81 in 10.0 mi ENE 21.9 mph 26.5 mph N/A   Overcast
9:35 PM 32.0 °F 19.8 °F 30.2 °F 93% 29.80 in 10.0 mi ENE 20.7 mph 35.7 mph N/A   Overcast
9:55 PM 32.0 °F 18.4 °F 28.4 °F 87% 29.82 in 10.0 mi ENE 26.5 mph 33.4 mph N/A   Overcast
10:15 PM 32.0 °F 18.6 °F 28.4 °F 87% 29.84 in 10.0 mi ENE 25.3 mph 29.9 mph N/A   Overcast
10:35 PM 32.0 °F 17.9 °F 26.6 °F 80% 29.83 in 10.0 mi NE 28.8 mph 39.1 mph N/A   Overcast
10:55 PM 28.4 °F 13.5 °F 26.6 °F 93% 29.84 in 10.0 mi ENE 26.5 mph 32.2 mph N/A   Overcast
11:15 PM 28.4 °F 13.5 °F 24.8 °F 86% 29.84 in 9.0 mi NE 26.5 mph 38.0 mph N/A   Overcast
11:35 PM 26.6 °F 12.4 °F 24.8 °F 93% 29.85 in 1.5 mi NE 21.9 mph 39.1 mph 0.05 in   Overcast
11:55 PM 26.6 °F 12.4 °F 24.8 °F 93% 29.85 in 1.0 mi NE 21.9 mph 36.8 mph 0.26 in   Overcast